Mandan, ND

6:41 PM CST on November 19, 2017 (GMT -0600)
Mandan

Weather History for KY19 - April, 2014

Change the Weather History Date:

Sunday, April 6, 2014

  Actual Average (KBIS) Record (KBIS)
Temperature  
Mean Temperature 42 °F -  
Max Temperature 55 °F 53 °F 77 °F (1988)
Min Temperature 28 °F 27 °F 3 °F (1979)
Degree Days  
Heating Degree Days 24    
Moisture  
Dew Point 32 °F    
Average Humidity 73    
Maximum Humidity 100    
Minimum Humidity 41    
Precipitation  
Precipitation 0.00 in - - ()
Sea Level Pressure  
Sea Level Pressure 29.80 in    
Wind  
Wind Speed 8 mph (SW)    
Max Wind Speed 18 mph    
Max Gust Speed 22 mph    
Visibility 10 miles    
Events      
Averages and records for this station are not official NWS values.
T = Trace of Precipitation, MM = Missing Value Source: NWS Daily Summary

Daily Weather History Graph

Daily Weather History Graph

Search for Another Location

Airport or City:

Trip Planner

Search our weather history database for the weather conditions in past years. The results will help you decide how hot, cold, wet, or windy it might be!

Date:

Astronomy

Apr. 06, 2014 Rise Set
Actual Time 7:13 AM CDT 8:19 PM CDT
Civil Twilight 6:42 AM CDT 8:50 PM CDT
Nautical Twilight 6:04 AM CDT 9:28 PM CDT
Astronomical Twilight 5:25 AM CDT 10:07 PM CDT
Moon 12:03 PM CDT (4/6) 2:28 AM CDT (4/6)
Length of Visible Light 14h 08m
Length of Day
13h 06m
Waxing Crescent, 44% of the Moon is Illuminated
Apr 6
Waxing Crescent
Apr 7
First Quarter
Apr 15
Full
Apr 22
Last Quarter
Apr 29
New

Hourly Weather History & Observations

Time (CDT) Temp. Windchill Dew Point Humidity Pressure Visibility Wind Dir Wind Speed Gust Speed Precip Events Conditions
12:15 AM 37.4 °F 32.8 °F 32.0 °F 81% 29.86 in 10.0 mi ESE 5.8 mph - N/A   Scattered Clouds
12:35 AM 37.4 °F 33.8 °F 32.0 °F 81% 29.86 in 10.0 mi East 4.6 mph - N/A   Scattered Clouds
12:55 AM 35.6 °F 31.7 °F 32.0 °F 87% 29.86 in 10.0 mi SE 4.6 mph - N/A   Partly Cloudy
1:15 AM 32.0 °F 27.5 °F 30.2 °F 93% 29.86 in 10.0 mi SE 4.6 mph - N/A   Clear
1:35 AM 33.8 °F 29.6 °F 32.0 °F 93% 29.86 in 10.0 mi SSE 4.6 mph - N/A   Clear
1:55 AM 35.6 °F 32.8 °F 32.0 °F 87% 29.86 in 10.0 mi SE 3.5 mph - N/A   Clear
2:15 AM 33.8 °F 30.8 °F 32.0 °F 93% 29.86 in 10.0 mi South 3.5 mph - N/A   Clear
2:35 AM 32.0 °F 27.5 °F 28.4 °F 87% 29.86 in 10.0 mi SW 4.6 mph - N/A   Clear
2:55 AM 32.0 °F 28.7 °F 28.4 °F 87% 29.85 in 10.0 mi SW 3.5 mph - N/A   Clear
3:15 AM 32.0 °F 28.7 °F 30.2 °F 93% 29.85 in 10.0 mi SSW 3.5 mph - N/A   Clear
3:35 AM 33.8 °F 27.7 °F 30.2 °F 87% 29.84 in 10.0 mi South 6.9 mph - N/A   Clear
3:55 AM 32.0 °F 23.6 °F 30.2 °F 93% 29.83 in 10.0 mi South 10.4 mph - N/A   Clear
4:15 AM 32.0 °F 24.2 °F 28.4 °F 87% 29.83 in 10.0 mi South 9.2 mph - N/A   Clear
4:35 AM 32.0 °F 26.4 °F 28.4 °F 87% 29.83 in 10.0 mi SSE 5.8 mph - N/A   Clear
4:55 AM 30.2 °F 23.4 °F 28.4 °F 93% 29.82 in 10.0 mi SE 6.9 mph - N/A   Clear
5:15 AM 30.2 °F 24.3 °F 28.4 °F 93% 29.82 in 7.0 mi SE 5.8 mph - N/A   Clear
5:35 AM 28.4 °F 22.2 °F 28.4 °F 100% 29.82 in 2.5 mi SSE 5.8 mph - N/A   Clear
5:55 AM 28.4 °F 22.2 °F 28.4 °F 100% 29.81 in 7.0 mi SSE 5.8 mph - N/A   Clear
6:15 AM 30.2 °F 23.4 °F 28.4 °F 93% 29.81 in 5.0 mi South 6.9 mph - N/A   Partly Cloudy
6:35 AM 30.2 °F 21.9 °F 28.4 °F 93% 29.81 in 6.0 mi South 9.2 mph - N/A   Mostly Cloudy
6:55 AM 32.0 °F 24.8 °F 28.4 °F 87% 29.80 in 8.0 mi South 8.1 mph - N/A   Overcast
7:15 AM 32.0 °F 23.6 °F 28.4 °F 87% 29.80 in 9.0 mi South 10.4 mph - N/A   Mostly Cloudy
7:35 AM 30.2 °F 23.4 °F 28.4 °F 93% 29.80 in 6.0 mi SSE 6.9 mph - N/A   Partly Cloudy
7:55 AM 30.2 °F 21.9 °F 28.4 °F 93% 29.81 in 8.0 mi South 9.2 mph - N/A   Clear
8:15 AM 32.0 °F 23.6 °F 30.2 °F 93% 29.81 in 9.0 mi South 10.4 mph - N/A   Clear
8:35 AM 35.6 °F 28.6 °F 32.0 °F 87% 29.81 in 10.0 mi South 9.2 mph - N/A   Clear
8:55 AM 35.6 °F 28.0 °F 32.0 °F 87% 29.81 in 10.0 mi South 10.4 mph - N/A   Clear
9:15 AM 37.4 °F 30.8 °F 33.8 °F 87% 29.80 in 10.0 mi South 9.2 mph - N/A   Clear
9:35 AM 39.2 °F 33.6 °F 33.8 °F 81% 29.80 in 10.0 mi South 8.1 mph - N/A   Clear
9:55 AM 39.2 °F 32.5 °F 35.6 °F 87% 29.79 in 10.0 mi South 10.4 mph - N/A   Clear
10:15 AM 41.0 °F 34.7 °F 35.6 °F 81% 29.79 in 10.0 mi SSW 10.4 mph - N/A   Partly Cloudy
10:55 AM 41.0 °F 36.4 °F 35.6 °F 81% 29.79 in 10.0 mi SSW 6.9 mph - N/A   Partly Cloudy
11:15 AM 44.6 °F 39.2 °F 35.6 °F 71% 29.79 in 10.0 mi SSW 10.4 mph - N/A   Scattered Clouds
11:35 AM 46.4 °F 42.4 °F 35.6 °F 66% 29.79 in 10.0 mi SW 8.1 mph - N/A   Partly Cloudy
11:55 AM 46.4 °F 42.4 °F 35.6 °F 66% 29.79 in 10.0 mi SW 8.1 mph - N/A   Partly Cloudy
12:15 PM 46.4 °F 42.4 °F 37.4 °F 71% 29.78 in 10.0 mi SW 8.1 mph - N/A   Mostly Cloudy
12:35 PM 48.2 °F - 35.6 °F 62% 29.78 in 10.0 mi SW 8.1 mph - N/A   Mostly Cloudy
12:55 PM 48.2 °F - 37.4 °F 66% 29.77 in 10.0 mi West 6.9 mph - N/A   Overcast
1:15 PM 50.0 °F - 35.6 °F 58% 29.77 in 10.0 mi WNW 5.8 mph - N/A   Overcast
1:35 PM 51.8 °F - 37.4 °F 58% 29.78 in 10.0 mi WNW 6.9 mph - N/A   Overcast
1:55 PM 51.8 °F - 37.4 °F 58% 29.77 in 10.0 mi WSW 11.5 mph 17.3 mph N/A   Overcast
2:15 PM 53.6 °F - 37.4 °F 54% 29.77 in 10.0 mi West 10.4 mph - N/A   Mostly Cloudy
2:35 PM 53.6 °F - 37.4 °F 54% 29.77 in 10.0 mi West 12.7 mph 18.4 mph N/A   Mostly Cloudy
2:55 PM 53.6 °F - 33.8 °F 47% 29.77 in 10.0 mi WNW 11.5 mph - N/A   Mostly Cloudy
3:15 PM 53.6 °F - 32.0 °F 44% 29.76 in 10.0 mi West 10.4 mph - N/A   Mostly Cloudy
3:35 PM 53.6 °F - 32.0 °F 44% 29.75 in 10.0 mi WSW 11.5 mph - N/A   Scattered Clouds
3:55 PM 55.4 °F - 32.0 °F 41% 29.75 in 10.0 mi WSW 10.4 mph - N/A   Mostly Cloudy
4:15 PM 55.4 °F - 32.0 °F 41% 29.75 in 10.0 mi West 10.4 mph 17.3 mph N/A   Mostly Cloudy
4:35 PM 55.4 °F - 32.0 °F 41% 29.75 in 10.0 mi West 16.1 mph - N/A   Scattered Clouds
4:55 PM 55.4 °F - 32.0 °F 41% 29.75 in 10.0 mi WNW 18.4 mph 21.9 mph N/A   Scattered Clouds
5:15 PM 55.4 °F - 32.0 °F 41% 29.75 in 10.0 mi WNW 16.1 mph - N/A   Clear
5:35 PM 55.4 °F - 32.0 °F 41% 29.75 in 10.0 mi WNW 16.1 mph 20.7 mph N/A   Clear
5:55 PM 53.6 °F - 32.0 °F 44% 29.76 in 10.0 mi WNW 16.1 mph - N/A   Clear
6:15 PM 53.6 °F - 32.0 °F 44% 29.76 in 10.0 mi West 16.1 mph - N/A   Partly Cloudy
6:35 PM 51.8 °F - 32.0 °F 47% 29.77 in 10.0 mi WNW 13.8 mph - N/A   Clear
6:55 PM 51.8 °F - 32.0 °F 47% 29.77 in 10.0 mi West 15.0 mph - N/A   Clear
7:15 PM 50.0 °F - 32.0 °F 50% 29.77 in 10.0 mi West 12.7 mph - N/A   Clear
7:35 PM 46.4 °F 41.9 °F 33.8 °F 62% 29.77 in 10.0 mi WNW 9.2 mph - N/A   Clear
7:55 PM 42.8 °F 37.5 °F 32.0 °F 66% 29.78 in 10.0 mi WNW 9.2 mph - N/A   Clear
8:15 PM 41.0 °F 35.8 °F 32.0 °F 70% 29.78 in 10.0 mi WNW 8.1 mph - N/A   Mostly Cloudy
8:35 PM 41.0 °F 35.8 °F 32.0 °F 70% 29.80 in 10.0 mi WNW 8.1 mph - N/A   Overcast
8:55 PM 41.0 °F 36.4 °F 32.0 °F 70% 29.80 in 10.0 mi WNW 6.9 mph - N/A   Overcast
9:15 PM 39.2 °F 33.6 °F 32.0 °F 75% 29.81 in 10.0 mi West 8.1 mph - N/A   Overcast
9:35 PM 39.2 °F 30.8 °F 32.0 °F 75% 29.83 in 10.0 mi North 15.0 mph - N/A   Scattered Clouds
9:55 PM 41.0 °F 35.8 °F 32.0 °F 70% 29.83 in 10.0 mi NW 8.1 mph - N/A   Clear
10:15 PM 41.0 °F 35.8 °F 32.0 °F 70% 29.83 in 10.0 mi NW 8.1 mph - N/A   Clear
10:35 PM 39.2 °F 33.0 °F 32.0 °F 75% 29.83 in 10.0 mi NW 9.2 mph - N/A   Clear
10:55 PM 39.2 °F 33.6 °F 32.0 °F 75% 29.83 in 10.0 mi NW 8.1 mph - N/A   Clear
11:15 PM 37.4 °F 32.1 °F 32.0 °F 81% 29.84 in 10.0 mi NW 6.9 mph - N/A   Clear
11:35 PM 37.4 °F 32.1 °F 32.0 °F 81% 29.84 in 10.0 mi NW 6.9 mph - N/A   Clear